This is the latest recevied weather packets stored in our database for station/object JE6MIQ-13. If no packets are shown the sender has not sent any weather packets the latest 10 day(s).
| Time | Temp. | Humidity | Pressure | Rain* | Wind** | Luminosity | Snow |
|---|---|---|---|---|---|---|---|
| 1777624352 | 19.44° C | 28% | 1009.2 hPa | 0 mm | - | - | - |
| 1777623752 | 19.44° C | 28% | 1009.2 hPa | 0 mm | - | - | - |
| 1777623152 | 20° C | 28% | 1009.2 hPa | 0 mm | - | - | - |
| 1777622553 | 20° C | 28% | 1008.8 hPa | 0 mm | - | - | - |
| 1777621953 | 20.56° C | 28% | 1009.2 hPa | 0 mm | - | - | - |
| 1777621352 | 20.56° C | 28% | 1009.2 hPa | 0 mm | - | - | - |
| 1777620752 | 20.56° C | 28% | 1008.9 hPa | 0 mm | - | - | - |
| 1777620153 | 21.11° C | 28% | 1008.8 hPa | 0 mm | - | - | - |
| 1777619553 | 22.22° C | 28% | 1008.8 hPa | 0 mm | - | - | - |
| 1777618951 | 22.22° C | 28% | 1008.4 hPa | 0 mm | - | - | - |
| 1777618353 | 23.33° C | 28% | 1008.6 hPa | 0 mm | - | - | - |
| 1777617751 | 22.78° C | 28% | 1008.6 hPa | 0 mm | - | - | - |
| 1777617152 | 23.33° C | 28% | 1008.6 hPa | 0 mm | - | - | - |
| 1777616552 | 23.33° C | 28% | 1009.2 hPa | 0 mm | - | - | - |
| 1777615953 | 23.33° C | 28% | 1009.3 hPa | 0 mm | - | - | - |
| 1777615352 | 23.33° C | 28% | 1009.3 hPa | 0 mm | - | - | - |
| 1777614752 | 23.33° C | 28% | 1008.9 hPa | 0 mm | - | - | - |
| 1777614153 | 23.89° C | 28% | 1008.9 hPa | 0 mm | - | - | - |
| 1777613553 | 24.44° C | 28% | 1009 hPa | 0 mm | - | - | - |
| 1777612951 | 24.44° C | 28% | 1008.9 hPa | 0 mm | - | - | - |
| 1777612351 | 23.33° C | 28% | 1008.9 hPa | 0 mm | - | - | - |
| 1777611751 | 22.78° C | 28% | 1009.2 hPa | 0 mm | - | - | - |
| 1777611153 | 22.22° C | 28% | 1009.4 hPa | 0 mm | - | - | - |
| 1777610553 | 22.22° C | 28% | 1009.4 hPa | 0 mm | - | - | - |
| 1777609952 | 23.33° C | 28% | 1009.3 hPa | 0 mm | - | - | - |
* Rain latest hour (hover to see other rain measurements)
** Current wind speed in m/s (hover to see current wind gust speed)